Location: Hilton Head Island
(32.2163°N, 80.7526°W)
Time: 09:58:11
(UTC-05:00)

Explorer 7 - Pass Details

Date: 25 February 2026
Orbit: 430 x 542 km, 50.2° (Epoch: 5 March)

Event Time Altitude Azimuth Distance (km) Brightness Sun altitude
Rises 19:44:37 0° 302° (WNW) 2,531 11.2 -19.2°
Reaches altitude 10° 19:46:53 10° 293° (WNW) 1,670 10.3 -19.6°
Maximum altitude 19:50:18 33° 228° (SW) 859 8.2 -20.4°
Enters shadow 19:52:38 17° 174° (S) 1,313 8.6 -20.8°
